STARLINK-1296, 45412

Orbit data source: Space-Track

STARLINK-1296, 45412 is a payload satellite owned by SpaceX/Seattle (US) in LEO that was launched on Wed, 18 Mar 2020 UTC via an FALCON 9 launch vehicle from the Air Force Eastern Test Range (AFETR). Payload-class satellites include a variety of spacecraft equipped with specific instruments for various scientific and technological missions. These include communications satellites like Starlink; space stations such as the ISS; scientific satellites like the Hubble; Earth observation satellites from companies like Planet Labs, Umbra, and HawkEye 360; GPS; miniature CubeSats for education and research; and military/defense satellites.

Loading next visibility...
Identifier
45412, 2020-019BE
Orbit
LEO
Country
Flag of USUS
Related business
Manufacturer
SpaceX/Seattle
Mission
Partially operational Commercial Communications
Bus & Motor
STARLINK, Unknown motor
Mass
260 kg wet, ~248 kg dry
Launch date (UTC)
2020-03-18 (6 years ago)
Launch vehicle
FALCON 9
Launch site
Air Force Eastern Test Range (AFETR)
Object type
Payload
Rocket body
Debris
Shape & HBR
Box + 1 Pan, 10.1 m
Radar Cross Section
13.562 m², Large (>1 m²)

Expand to show TLE details & history
Last TLE update: 10 hours ago

TLE from 10 hours ago
0 STARLINK-1296
1 45412U 20019BE  26192.21102381  .00033745  00000-0  79372-3 0  9999
2 45412  53.1541 270.5751 0000748 290.9226  69.1700 15.41693047348955
Epoch: 2026-07-11T05:03Z
TLE epoch observation values (Epoch: 2026-07-11T05:03:52.457Z)
Latitude
0.00003°
Longitude
-94.52095°
Altitude
441.834 km
Speed
7.648 km/s
True Right ascension
18h 02m 18s
True Declination
0° 00' 00"
Sunlit
Object was in full shadow at epoch
Visualization orbit readout
Latitude
Unknown
Longitude
Unknown
Altitude
Unknown
Speed
Unknown
Apparent Right ascension
Unknown
Apparent Declination
Unknown
Sunlit
N/A
Visualization observer readout
Local Sidereal Time
03:26:48
Azimuth
Unknown
Elevation
Unknown
Doppler factor
Unknown
Orbital elements
Apogee altitude
441.881 km
Perigee altitude
440.861 km
Semi-major axis
6,819.508 km
Eccentricity
0.00007
Inclination
53.1541°
RAAN
270.5751°
Arg. of periapsis
290.9226°
True anomaly
69.17801°
Mean anomaly
69.17°
Eccentric anomaly
69.17401°
Mean motion
3.85402 °/min
Orbital period
93.41 mins
BSTAR
0.00079372
Loading maneuver chart data...
Computing Atmospheric mass density...

Documentation

Showing up to 5 results
|